User: anonymous   Login
Location: Unspecified
(0.0000°N, 0.0000°E)
Time: 10:11:11
(UTC+02:00)
Language:

ATLAS 2AS CENTAUR R/B - Orbit

View from above orbital plane
View from above orbital plane
View from above satellite
View from above satellite

Ground track
Ground track

The orbit data is extracted from the following two-line orbital elements,

1 28096U 03054B   15144.90826213 0.00000050  00000-0  74396-4 0    04
2 28096  63.6680 164.2641 0259000 286.8327  73.1673 13.40784675    04
Epoch (UTC): 24 May 2015 21:47:53
Eccentricity: 0.0259000
inclination: 63.6680°
perigee height: 912 km
apogee height: 1300 km
right ascension of ascending node: 164.2641°
argument of perigee: 286.8327°
revolutions per day: 13.40784675
mean anomaly at epoch: 73.1673°
orbit number at epoch: 0

The dashed part of the orbit path shows where the satellite is in the earth's shadow,  

DLR